Lapse_Rate
2.8 2.5 2.7 2.8 2.6 2.6 2.5 2.5 2.6 2.7 2.6 2.5 3.0 3.4 3.5 3.6 4.0 4.5 5.1 5.9 6.4 6.6 6.0 6.0 6.2 6.2 6.1 6.0 7.6 8.2 8.5 7.8 6.8 6.6 6.7 7.4 6.4 6.3 6.5 6.3 5.6 6.5 6.3 5.9 4.6 3.7 3.7
2.8 2.5 2.3 2.2 2.4 2.5 2.5 2.5 2.6 2.8 2.7 2.5 2.7 3.2 3.2 3.0 3.3 3.8 4.5 5.6 6.3 6.3 6.2 6.1 5.9 6.2 6.4 6.5 7.9 8.7 8.2 7.8 7.9 7.0 7.4 7.0 6.3 6.9 5.7 6.2 6.4 5.7 5.4 6.2 5.5 5.0 4.4
2.8 2.7 2.2 2.4 2.3 2.4 2.3 2.4 2.2 2.5 2.6 2.6 2.5 3.0 3.0 2.9 2.9 3.3 4.0 4.9 5.7 6.0 6.0 5.8 5.8 6.1 6.2 6.8 7.8 8.2 8.2 7.5 8.4 7.5 7.1 7.1 7.5 5.9 5.6 6.5 5.8 6.1 6.5 6.5 6.2 5.8 6.4
2.4 2.4 2.3 2.4 2.5 2.5 2.4 2.0 1.8 1.9 1.9 2.3 2.4 2.6 2.7 2.7 2.6 2.8 3.3 4.1 4.7 5.6 5.4 5.5 5.7 5.6 5.2 8.2 7.6 7.6 8.6 8.0 8.5 7.8 7.7 7.2 7.0 6.5 6.3 5.6 5.8 6.5 6.5 6.5 6.5 6.2 6.0
2.3 1.9 2.2 2.3 2.2 2.1 2.2 1.8 1.6 1.6 1.7 1.8 2.0 2.2 2.5 2.5 2.4 2.5 2.9 3.5 4.2 4.8 5.2 5.5 5.4 6.5 6.4 8.0 7.9 8.1 7.8 7.9 8.0 8.2 7.3 8.5 7.6 6.3 5.5 6.5 6.5 6.5 6.5 6.5 6.5 6.2 6.5
2.2 2.0 1.7 1.8 1.8 1.5 1.6 1.6 1.5 1.8 1.6 1.6 1.7 1.9 2.2 2.3 2.3 2.4 2.9 3.5 4.0 3.8 5.4 6.2 6.7 6.2 6.9 7.1 7.5 7.7 8.5 8.3 7.7 6.4 6.6 6.8 5.3 6.5 6.5 6.5 6.5 6.5 6.5 6.5 6.5 6.5 6.5
2.1 1.9 1.6 1.4 1.5 1.3 1.4 1.3 1.2 1.4 1.4 1.5 1.8 1.9 2.1 2.3 2.5 2.7 2.5 3.0 4.1 4.9 5.3 6.6 6.6 6.9 7.5 7.7 7.7 8.0 8.4 7.8 7.4 6.1 6.5 6.3 6.5 6.5 6.5 6.5 6.5 6.5 6.5 6.5 6.5 6.5 6.5
2.0 1.7 1.3 1.1 1.2 1.5 1.5 1.4 1.2 1.3 1.3 1.3 1.6 1.7 1.9 2.3 2.7 3.0 2.7 5.8 5.9 6.2 5.6 7.1 6.8 7.1 7.4 7.6 7.0 7.2 7.7 6.8 6.6 6.5 6.5 6.5 6.5 6.5 6.5 6.5 6.5 6.5 6.5 6.5 6.5 6.5 6.5
1.6 1.5 1.2 1.2 1.4 1.4 1.4 1.2 1.0 1.1 1.0 1.2 1.4 1.7 2.0 2.5 3.0 2.9 5.3 5.6 6.1 5.7 5.9 6.5 7.4 7.2 7.2 7.3 6.5 6.9 7.1 6.4 6.5 6.5 6.5 6.5 6.5 6.4 6.5 6.5 6.5 6.5 6.5 6.5 6.5 6.5 6.5
1.5 1.6 1.1 0.9 0.9 0.9 0.9 0.8 0.8 0.7 0.5 0.8 1.3 1.8 2.5 3.1 3.9 4.7 5.1 5.2 5.8 5.3 6.5 6.5 6.5 6.9 7.2 7.1 6.5 7.6 7.7 6.8 6.4 6.5 6.5 6.5 6.5 6.5 6.5 6.5 6.5 6.5 6.5 6.5 6.5 6.5 6.5
1.6 1.5 1.2 0.9 0.7 0.6 0.4 0.5 0.4 0.4 0.4 0.3 1.3 2.1 2.7 3.1 2.9 4.6 4.7 5.3 5.3 4.3 6.5 6.5 6.5 7.2 7.0 6.4 6.4 6.6 6.7 6.5 6.5 6.5 6.5 6.5 6.5 6.5 6.5 6.5 6.5 6.5 6.5 6.5 6.5 6.5 6.5
1.6 1.3 1.1 1.0 0.7 0.6 0.6 0.4 0.2 0.1 0.3 0.3 1.3 2.1 2.9 3.1 2.5 4.4 4.9 4.3 4.0 6.5 6.5 6.5 6.5 6.5 6.5 6.4 6.5 6.1 6.2 6.3 6.4 6.5 6.5 6.5 6.4 6.5 6.5 6.5 6.5 6.5 6.5 6.5 6.5 6.5 6.5
1.4 1.2 1.1 0.9 0.5 0.5 0.4 0.2 -0.1 -0.3 -0.1 0.3 1.4 2.2 2.5 3.6 3.7 4.3 3.8 3.7 6.5 6.5 6.5 6.5 6.5 6.5 6.5 6.5 6.5 6.5 6.5 6.5 6.5 6.5 6.5 6.5 6.5 6.5 6.5 6.5 6.5 6.5 6.5 6.5 6.5 6.5 6.5
1.3 1.2 1.0 0.9 0.5 0.3 0.2 0.0 -0.1 -0.4 -0.2 0.5 1.4 1.8 2.9 3.4 3.9 3.7 2.8 6.2 6.5 6.5 6.5 6.5 6.5 6.5 6.5 6.5 6.5 6.5 6.5 6.5 6.5 6.5 6.5 6.5 6.5 6.5 6.5 6.5 6.5 6.5 6.5 6.5 6.5 6.5 6.5
1.2 1.2 0.9 0.8 0.6 0.3 0.1 -0.1 -0.3 -0.5 -0.5 0.7 1.1 0.1 1.3 1.4 3.5 2.1 3.4 6.5 6.5 6.5 6.5 6.5 6.5 6.5 6.5 6.5 6.5 6.5 6.5 6.5 6.5 6.5 6.5 6.5 6.5 6.5 6.5 6.5 6.5 6.5 6.5 6.5 6.5 6.5 6.5
1.4 1.2 1.2 1.0 0.5 0.2 -0.0 -0.1 -0.4 -0.6 -0.8 -0.2 -0.2 1.8 2.2 2.7 2.8 1.6 5.6 6.5 6.5 6.5 6.5 6.5 6.5 6.5 6.5 6.5 6.5 6.5 6.5 6.5 6.5 6.4 6.2 6.5 6.5 6.5 6.5 6.5 6.4 6.5 6.5 6.5 6.5 6.5 6.5
1.4 1.5 1.4 1.1 0.5 0.1 -0.1 -0.2 -0.2 -0.3 -0.7 -0.4 0.2 3.0 2.1 2.6 0.9 1.9 6.5 6.5 6.5 6.6 6.4 6.5 6.5 6.5 6.5 6.5 6.5 6.5 6.5 6.5 6.5 6.5 6.3 6.5 6.5 6.5 6.5 6.5 6.5 6.5 6.5 6.5 6.5 6.5 6.5
1.7 1.6 1.5 1.4 0.9 0.3 0.1 -0.2 -0.4 -0.4 -0.7 -0.6 1.3 5.8 1.5 0.4 4.5 3.8 6.5 6.5 5.6 6.5 6.5 6.4 6.5 6.5 6.5 6.5 6.5 6.5 6.5 6.5 6.0 6.3 6.5 6.5 6.5 6.5 6.5 6.5 6.5 6.5 6.5 6.5 6.5 6.5 6.5
1.9 1.8 1.7 1.4 1.3 0.9 0.3 -0.1 -0.2 -0.3 -0.6 -2.0 2.5 3.0 1.2 1.4 6.5 6.5 6.2 6.5 6.3 6.5 6.5 6.5 6.5 6.5 6.5 6.5 6.5 6.5 6.5 6.4 6.5 6.5 6.5 6.5 6.5 6.5 6.5 6.5 6.5 6.5 6.5 6.5 6.5 6.5 6.5
2.1 2.1 1.9 1.8 1.6 1.4 0.9 0.3 -0.1 -0.2 -0.2 -1.8 1.5 6.5 3.2 1.9 2.6 6.4 6.5 6.5 6.5 6.0 6.3 6.4 6.5 6.4 6.5 6.5 6.5 6.5 6.5 6.5 6.1 6.4 6.3 6.0 6.5 6.5 6.5 6.5 6.5 6.5 6.5 6.5 6.5 6.5 6.5
2.8 2.5 2.4 2.2 2.2 1.9 1.3 0.8 0.3 0.2 -0.2 -0.9 1.4 4.8 4.5 6.5 5.9 6.2 6.4 6.5 6.5 6.5 6.1 6.0 6.5 6.5 6.5 6.5 6.5 6.5 6.5 6.5 6.4 6.3 6.2 6.5 6.5 6.5 6.5 6.5 6.5 6.5 6.5 6.5 6.5 6.5 6.5
4.3 3.9 3.5 3.0 2.7 2.6 2.2 1.4 0.8 0.6 0.3 -0.1 2.8 3.7 2.7 3.7 5.1 6.4 6.4 6.5 6.5 6.5 6.4 6.5 6.5 6.5 6.5 6.5 6.5 6.5 6.5 6.5 6.5 6.5 6.5 6.4 6.5 6.5 6.5 6.5 6.5 6.5 6.5 6.5 6.5 6.5 6.5
6.4 5.9 5.9 4.8 3.7 3.3 3.4 2.6 1.4 1.0 1.1 0.6 1.5 2.3 2.9 3.7 5.8 6.5 6.5 6.5 6.5 6.2 5.7 5.5 5.9 6.5 6.5 6.4 5.0 4.9 4.8 4.9 5.9 6.5 6.5 6.5 6.5 6.5 6.5 6.5 6.5 6.5 6.5 6.5 6.5 6.5 6.5
8.1 8.1 7.3 7.2 6.7 5.7 5.3 5.1 3.5 2.3 1.6 0.3 1.4 1.7 3.2 6.5 6.4 6.5 6.4 6.0 6.5 6.1 6.5 6.1 5.3 6.3 5.8 5.3 4.4 4.4 4.5 5.1 5.5 6.0 5.7 6.5 6.5 6.5 6.5 6.5 6.5 6.5 6.5 6.5 6.5 6.5 6.5
8.4 8.3 8.5 8.5 8.2 8.2 7.9 7.4 6.2 4.7 3.5 1.8 1.9 2.5 3.1 6.5 4.9 5.9 5.5 5.8 5.6 5.1 5.7 5.8 5.1 4.6 4.4 5.5 6.5 6.5 6.5 6.5 6.5 6.5 6.5 6.3 6.5 6.5 6.5 6.5 6.5 6.5 6.5 6.5 6.5 6.5 6.5
7.9 8.6 8.7 8.6 8.5 8.7 8.8 8.9 8.3 7.0 5.6 2.6 2.7 2.8 2.8 4.7 5.9 5.5 5.5 5.3 6.5 6.5 6.5 5.6 5.2 4.6 5.6 5.9 6.5 6.5 6.5 6.5 6.5 6.5 6.4 6.5 6.5 6.5 6.5 6.5 6.5 6.5 6.5 6.2 6.4 6.5 6.2
6.8 6.9 7.4 7.9 8.2 8.4 8.6 8.6 8.9 8.3 6.9 4.7 3.7 4.8 3.9 4.5 3.2 6.1 5.3 5.9 4.4 5.5 6.5 5.8 5.0 5.4 5.4 6.5 6.5 6.5 6.5 6.5 6.5 6.5 6.5 6.5 6.5 6.5 6.5 6.5 6.5 6.5 6.3 6.0 6.5 6.5 6.1
4.3 4.5 5.0 5.4 6.0 6.6 7.0 7.3 7.9 8.3 7.8 5.9 4.8 5.4 4.6 4.3 3.7 4.9 6.1 5.7 4.8 4.3 6.5 4.9 5.8 5.7 6.0 6.5 6.5 6.5 6.5 6.5 6.5 6.5 6.5 6.5 6.5 6.5 6.5 6.5 6.5 5.4 6.4 6.5 6.2 5.7 5.9
3.7 3.9 4.2 4.4 4.6 4.7 5.2 5.9 6.4 6.9 7.6 6.4 5.5 6.0 5.5 5.7 4.6 4.3 5.2 4.2 6.1 6.1 5.1 3.8 4.4 4.3 4.6 6.5 6.5 6.5 6.5 6.5 6.5 6.5 6.5 6.5 6.5 6.5 6.5 6.5 5.6 3.6 4.7 4.5 3.9 4.3 5.2
Wind_Speed
8 9 9 10 11 12 13 12 11 10 9 9 9 8 9 9 10 11 13 14 15 15 15 15 13 11 4 2 4 4 6 6 2 2 3 2 3 2 2 2 4 6 8 5 6 6 3
8 9 10 11 13 13 14 13 12 11 9 9 9 9 9 9 9 10 12 13 12 12 13 14 13 12 2 2 5 9 8 4 2 4 3 2 3 4 5 4 3 4 11 5 4 5 2
8 9 11 11 13 14 14 14 12 11 10 9 9 9 10 10 9 9 11 12 13 11 10 12 11 5 3 3 6 9 7 3 4 1 2 2 2 5 7 6 3 4 8 4 5 6 5
9 10 11 12 13 13 14 13 14 11 9 8 8 9 10 11 10 9 10 11 13 12 10 8 10 2 4 2 7 6 1 3 5 2 2 6 5 2 2 5 6 6 3 4 5 8 4
9 10 12 13 14 14 15 15 14 12 9 8 7 8 10 10 11 10 10 11 12 12 11 10 3 1 3 3 3 5 5 3 3 2 4 5 1 1 6 3 4 4 3 3 2 8 6
10 10 12 13 14 14 15 16 15 12 10 9 8 9 10 10 10 12 13 11 10 10 6 7 4 3 3 2 2 4 3 4 2 2 3 1 3 2 5 4 4 2 2 3 4 6 2
10 11 12 13 14 15 15 16 15 13 11 9 9 9 9 9 9 11 9 3 4 3 1 1 5 2 2 2 1 1 1 2 3 4 3 2 5 2 8 6 6 3 4 6 4 6 5
10 11 12 13 14 15 15 16 16 14 11 9 10 9 8 8 8 9 4 3 2 3 5 3 4 3 3 1 3 1 3 1 1 2 2 3 3 8 6 9 5 6 4 4 2 2 5
9 11 11 12 12 13 14 15 16 14 12 11 10 8 7 6 6 3 1 2 4 4 1 3 1 2 1 1 4 1 1 4 2 3 3 2 5 6 6 4 4 2 2 1 5 1 3
8 10 11 11 12 13 13 14 15 14 11 11 9 7 6 4 3 2 2 5 5 2 4 2 2 1 1 1 2 2 1 0 3 3 4 2 3 2 1 2 3 3 1 3 5 4 5
8 10 11 12 13 14 14 14 15 15 11 9 8 7 4 6 2 2 3 7 5 3 5 6 2 2 2 1 2 1 1 3 3 4 5 4 4 3 2 2 2 5 3 3 3 3 3
6 9 10 12 13 14 15 15 16 17 13 9 5 5 6 2 1 3 7 6 3 5 3 5 1 3 1 3 2 1 1 2 3 4 3 3 1 1 2 2 2 4 3 5 5 3 2
6 8 10 11 13 14 15 16 18 19 13 7 3 2 2 4 1 7 6 3 4 6 1 6 3 5 5 4 3 4 2 1 1 4 3 2 1 1 1 2 3 5 6 3 4 3 4
5 7 9 11 12 14 15 16 18 19 16 8 2 2 2 1 3 5 3 3 8 2 3 2 3 6 4 2 2 4 3 3 3 2 2 2 6 3 1 1 2 2 5 4 5 3 4
4 6 9 11 12 14 15 16 17 18 18 9 7 2 1 2 2 2 4 5 3 2 3 5 7 2 4 2 1 2 6 2 1 4 3 4 3 1 2 2 2 2 2 3 2 2 2
3 5 7 9 12 14 15 16 17 18 17 8 2 2 1 1 2 3 4 1 1 2 4 2 2 2 3 5 1 1 2 3 2 2 3 2 4 0 1 1 2 2 3 2 2 1 3
2 4 7 9 11 13 14 16 18 19 20 3 2 2 2 1 3 4 3 3 2 2 1 2 4 4 3 2 4 3 5 3 6 3 2 1 2 3 2 4 5 1 3 2 2 5 3
1 3 5 8 10 12 14 15 16 19 23 3 2 2 1 3 3 1 2 2 1 1 1 2 2 3 3 4 3 3 3 2 2 1 4 2 4 4 8 2 1 2 4 5 4 4 2
3 2 4 6 9 12 13 15 16 17 16 1 0 2 2 3 2 2 3 2 2 2 2 1 2 1 2 3 3 2 3 1 2 2 1 2 3 2 7 4 3 1 4 2 2 3 4
4 4 4 6 9 11 13 15 15 16 16 2 2 2 3 2 1 2 1 2 2 2 2 2 3 2 2 3 5 3 3 2 1 1 1 2 2 5 6 5 4 3 5 5 4 3 3
7 5 4 5 8 10 11 14 15 16 15 1 1 3 4 2 3 1 2 2 2 3 3 4 2 4 2 3 4 4 2 2 2 2 1 1 4 3 6 8 5 6 7 7 8 7 8
8 8 7 7 7 9 10 12 15 19 16 2 1 1 3 2 2 3 3 4 6 2 5 4 4 2 6 5 4 4 1 3 2 2 2 2 4 3 5 6 8 7 10 10 9 7 11
10 10 10 9 8 8 10 10 12 17 13 2 2 1 4 4 2 4 4 5 5 4 4 5 7 2 4 8 5 5 5 4 5 0 3 3 2 3 5 5 5 7 9 10 5 6 8
12 11 11 11 9 9 9 9 8 10 9 1 2 2 3 5 4 5 3 5 6 5 4 3 5 4 3 1 4 3 4 5 6 6 4 1 2 2 4 5 3 5 3 1 9 5 7
13 13 12 12 11 10 12 10 7 5 5 2 2 2 1 3 4 5 8 6 4 4 5 5 5 4 3 3 3 5 4 4 1 4 2 2 3 3 2 2 7 4 4 3 2 5 3
16 14 14 13 13 14 14 14 11 7 3 1 2 1 2 2 5 4 4 5 5 4 3 4 2 1 2 2 2 4 4 5 3 1 3 3 4 3 2 2 4 2 2 3 2 5 6
12 12 14 16 16 15 18 17 15 12 7 3 2 2 1 3 5 3 4 4 3 2 3 2 4 3 3 3 3 5 5 4 4 5 5 2 1 5 4 3 8 4 3 3 1 4 2
7 7 7 8 10 14 16 16 17 16 13 6 4 5 4 3 5 4 3 3 2 2 4 3 3 2 3 3 4 5 5 6 4 6 7 8 6 4 2 3 8 5 2 4 3 2 0
12 11 11 12 10 10 10 14 18 18 17 16 3 5 7 3 6 3 8 12 4 2 2 3 3 4 5 2 2 1 3 1 5 4 0 2 7 5 9 6 4 7 6 4 4 3 3
Wind_Direction
37 38 29 20 17 10 6 355 348 338 326 312 313 323 329 338 338 333 328 338 352 358 4 8 10 354 317 345 45 169 336 309 213 191 239 269 299 290 255 256 265 218 265 288 139 165 281
31 30 30 23 15 8 1 359 351 338 327 320 316 319 329 334 336 331 328 330 333 345 352 353 357 337 305 39 306 10 335 147 215 204 247 173 242 302 259 255 191 228 224 204 179 158 170
28 23 27 21 12 6 3 358 352 349 338 330 321 322 328 329 330 329 326 327 328 329 340 335 344 338 322 269 319 328 320 1 163 123 5 302 302 39 325 314 335 241 219 138 168 180 167
35 22 16 17 9 6 2 4 357 355 347 338 331 324 327 325 323 324 322 318 321 320 314 308 325 21 284 249 315 323 325 22 27 147 258 296 2 313 223 287 326 161 118 149 210 145 172
28 23 15 9 8 6 5 4 0 0 353 347 339 331 325 324 321 318 316 309 309 304 296 291 314 55 344 325 5 336 14 314 193 239 335 312 0 332 343 22 8 14 181 167 164 179 139
27 23 17 11 9 9 8 6 4 1 360 354 346 338 325 320 322 318 310 294 293 312 286 249 247 357 312 331 336 318 313 336 315 100 331 308 39 30 351 68 189 244 340 318 188 199 153
26 21 18 16 10 9 8 7 6 5 4 354 350 335 327 320 324 322 338 12 13 357 11 259 304 349 358 270 319 265 279 349 352 38 29 274 65 228 243 233 230 303 246 229 236 214 140
28 22 21 19 15 8 7 7 6 4 356 354 351 340 332 322 322 325 322 53 87 213 323 246 251 263 240 78 292 317 356 313 332 318 312 27 253 242 239 263 233 241 252 286 262 199 163
28 23 20 21 15 9 3 7 6 2 355 350 351 346 339 328 319 346 324 63 335 14 249 279 243 323 144 39 331 276 110 334 280 310 317 185 267 323 213 330 29 325 227 301 233 138 17
30 21 20 14 10 4 1 1 4 2 1 349 346 355 350 339 346 308 53 327 345 50 63 298 279 231 271 259 306 5 355 254 312 283 280 238 290 312 321 321 49 309 18 273 136 108 184
26 25 18 14 9 2 0 358 360 0 356 352 346 353 4 28 289 50 294 331 326 68 49 294 317 245 179 143 222 270 15 339 281 322 63 277 357 338 17 311 356 240 329 273 159 192 79
36 26 18 14 12 6 359 359 359 357 350 345 3 14 349 16 32 316 328 340 43 47 309 339 297 283 259 223 206 217 268 159 252 302 233 242 257 318 228 301 254 284 348 26 47 76 59
42 30 17 14 15 6 1 360 4 360 348 339 357 26 24 316 290 327 339 50 35 79 280 316 321 331 317 227 195 185 231 244 220 32 337 344 269 259 269 324 340 45 52 5 9 12 215
35 27 20 14 13 9 4 2 5 8 5 335 295 323 319 105 348 358 53 60 64 300 359 345 282 294 249 203 240 208 302 289 218 160 312 146 336 201 282 234 194 194 141 154 183 178 240
37 24 22 15 11 9 6 5 5 6 7 355 319 300 317 273 1 56 74 47 219 302 294 327 315 298 315 269 237 242 211 217 14 170 153 7 286 336 12 2 60 273 166 171 107 310 77
26 26 17 16 12 10 8 5 2 1 358 358 355 325 276 307 49 64 75 218 227 284 318 312 305 38 318 325 295 128 222 330 99 94 26 282 329 28 294 354 248 207 310 63 4 213 245
42 20 11 8 12 10 8 7 0 357 350 341 67 28 271 82 55 52 107 231 286 170 38 341 326 315 310 341 322 284 342 358 10 336 112 195 81 279 75 215 191 119 289 233 160 156 183
296 10 10 356 1 11 7 7 6 360 353 80 86 8 264 77 42 90 138 219 189 289 177 289 262 267 298 322 309 303 348 184 333 349 310 302 152 257 232 254 313 263 243 168 131 248 216
252 296 337 347 352 1 7 7 5 5 9 42 346 227 346 76 96 317 270 240 221 228 239 307 274 83 317 280 332 332 336 294 347 6 192 345 281 345 331 346 359 239 266 273 109 66 216
251 276 306 326 342 353 360 3 2 4 1 90 75 359 335 52 218 158 344 251 250 212 241 212 252 282 287 277 212 291 300 225 191 331 331 69 256 208 201 205 166 231 233 221 157 140 209
255 269 289 308 325 337 351 358 357 353 358 31 107 215 184 284 298 254 179 257 253 249 225 203 257 222 220 293 308 228 256 273 196 164 355 142 261 241 260 257 247 232 222 211 196 204 192
260 271 283 297 308 321 336 350 357 351 352 91 112 86 356 257 189 186 211 245 205 213 164 235 216 240 199 215 204 275 323 237 288 190 216 158 271 315 285 275 218 242 238 224 230 238 250
256 275 281 288 295 307 318 337 358 2 357 49 299 17 106 272 235 139 222 226 232 151 234 197 202 235 250 246 227 230 233 250 238 260 212 188 216 12 266 304 312 293 238 204 204 211 193
260 271 268 273 280 291 296 312 344 10 33 166 279 72 102 264 196 207 224 203 207 223 241 248 182 177 237 4 310 255 258 254 251 254 191 207 305 209 273 333 247 253 29 7 216 253 218
257 268 263 270 276 289 296 291 298 337 17 64 295 86 150 248 234 288 261 231 246 240 234 222 221 197 124 56 1 340 338 338 25 40 124 117 121 298 269 254 288 310 4 15 354 301 292
259 251 254 266 264 265 270 277 274 276 307 106 261 177 138 140 248 260 252 204 219 211 284 226 67 82 93 126 138 222 224 235 250 230 21 89 95 137 333 258 266 272 268 304 280 291 355
276 282 282 275 273 269 267 271 272 253 234 175 253 194 119 220 267 217 220 211 199 198 208 178 179 143 99 161 183 204 231 202 207 195 172 122 168 203 226 263 283 241 227 311 116 257 335
38 18 349 337 317 289 277 276 275 265 235 167 249 182 159 246 279 267 294 258 277 209 193 198 67 285 99 185 181 228 201 217 179 186 178 171 165 207 172 191 261 160 99 185 223 302 186
29 20 14 17 360 342 329 289 269 266 247 191 247 210 172 197 248 282 250 248 221 250 173 216 214 174 194 162 224 232 243 188 184 219 140 217 189 190 184 215 227 202 193 198 174 199 205